TimeCDT,TemperatureF,Dew PointF,Humidity,Sea Level PressureIn,VisibilityMPH,Wind Direction,Wind SpeedMPH,Gust SpeedMPH,PrecipitationIn,Events,Conditions,WindDirDegrees,DateUTC
12:15 AM,75.4,69.3,81,30.06,10.0,South,9.2,-,N/A,,Clear,170,2013-10-27 05:15:00
12:35 AM,75.2,69.4,82,30.05,10.0,South,10.4,-,N/A,,Clear,170,2013-10-27 05:35:00
12:55 AM,75.2,69.4,82,30.05,10.0,South,8.1,-,N/A,,Clear,170,2013-10-27 05:55:00
1:15 AM,75.2,69.1,81,30.05,10.0,South,9.2,-,N/A,,Clear,170,2013-10-27 06:15:00
1:35 AM,74.8,69.8,84,30.04,10.0,South,8.1,-,N/A,,Clear,170,2013-10-27 06:35:00
1:55 AM,74.8,69.8,84,30.04,10.0,South,8.1,-,N/A,,Clear,170,2013-10-27 06:55:00
2:15 AM,75.2,70.2,84,30.04,10.0,South,6.9,-,N/A,,Clear,170,2013-10-27 07:15:00
2:35 AM,74.8,70.7,87,30.04,7.0,South,4.6,-,N/A,,Scattered Clouds,170,2013-10-27 07:35:00
2:55 AM,74.3,70.7,88,30.03,7.0,South,4.6,-,N/A,,Mostly Cloudy,170,2013-10-27 07:55:00
3:15 AM,74.3,70.7,88,30.03,7.0,South,3.5,-,N/A,,Overcast,170,2013-10-27 08:15:00
3:35 AM,73.4,70.3,90,30.03,5.0,Calm,Calm,-,N/A,,Overcast,0,2013-10-27 08:35:00
3:55 AM,73.2,70.2,90,30.02,5.0,Calm,Calm,-,N/A,,Overcast,0,2013-10-27 08:55:00
4:15 AM,73.0,70.2,91,30.02,5.0,Calm,Calm,-,N/A,,Overcast,0,2013-10-27 09:15:00
4:35 AM,71.8,68.7,90,30.03,5.0,Calm,Calm,-,N/A,,Overcast,0,2013-10-27 09:35:00
4:55 AM,71.2,68.4,91,30.02,5.0,Calm,Calm,-,N/A,,Overcast,0,2013-10-27 09:55:00
5:15 AM,71.6,69.1,92,30.02,5.0,Calm,Calm,-,N/A,,Overcast,0,2013-10-27 10:15:00
5:35 AM,72.3,70.0,92,30.02,4.0,Calm,Calm,-,N/A,,Overcast,0,2013-10-27 10:35:00
5:55 AM,73.8,71.6,93,30.03,5.0,Calm,Calm,-,N/A,,Overcast,0,2013-10-27 10:55:00
6:15 AM,72.7,69.3,89,30.04,5.0,Calm,Calm,-,0.09,Rain,Rain,0,2013-10-27 11:15:00
6:35 AM,73.4,69.8,88,30.04,10.0,Calm,Calm,-,0.09,,Overcast,0,2013-10-27 11:35:00
6:55 AM,73.4,69.8,88,30.04,7.0,Calm,Calm,-,0.09,,Overcast,0,2013-10-27 11:55:00
7:15 AM,72.9,69.3,88,30.04,10.0,WSW,3.5,-,N/A,,Scattered Clouds,240,2013-10-27 12:15:00
7:35 AM,72.9,69.1,88,30.04,10.0,Calm,Calm,-,N/A,,Clear,0,2013-10-27 12:35:00
7:55 AM,71.6,69.3,92,30.05,7.0,Calm,Calm,-,N/A,,Scattered Clouds,0,2013-10-27 12:55:00
8:15 AM,71.6,69.4,93,30.05,7.0,Calm,Calm,-,N/A,,Scattered Clouds,0,2013-10-27 13:15:00
8:35 AM,72.9,70.7,93,30.05,7.0,Calm,Calm,-,N/A,,Clear,0,2013-10-27 13:35:00
8:55 AM,74.3,71.1,90,30.06,10.0,Calm,Calm,-,N/A,,Clear,0,2013-10-27 13:55:00
9:15 AM,76.1,70.5,83,30.06,10.0,Calm,Calm,-,N/A,,Clear,0,2013-10-27 14:15:00
9:35 AM,76.8,69.8,79,30.07,10.0,Calm,Calm,-,N/A,,Clear,0,2013-10-27 14:35:00
9:55 AM,78.1,70.2,77,30.07,10.0,South,4.6,-,N/A,,Scattered Clouds,190,2013-10-27 14:55:00
10:15 AM,78.6,70.2,75,30.08,10.0,South,3.5,-,N/A,,Scattered Clouds,170,2013-10-27 15:15:00
10:35 AM,78.6,70.0,75,30.08,10.0,SSE,3.5,-,N/A,,Clear,160,2013-10-27 15:35:00
10:55 AM,79.3,69.8,72,30.08,10.0,SSE,4.6,-,N/A,,Clear,160,2013-10-27 15:55:00
11:15 AM,79.3,69.1,71,30.08,10.0,South,4.6,-,N/A,,Clear,170,2013-10-27 16:15:00
11:35 AM,79.7,69.6,71,30.08,10.0,South,4.6,-,N/A,,Clear,170,2013-10-27 16:35:00
11:55 AM,79.7,70.2,73,30.07,10.0,SE,5.8,-,N/A,,Clear,140,2013-10-27 16:55:00
12:15 PM,79.9,69.6,71,30.07,10.0,SSE,5.8,-,N/A,,Clear,150,2013-10-27 17:15:00
12:35 PM,79.9,70.2,72,30.06,10.0,South,6.9,-,N/A,,Clear,170,2013-10-27 17:35:00
12:55 PM,80.1,70.3,72,30.06,10.0,South,6.9,-,N/A,,Clear,170,2013-10-27 17:55:00
1:15 PM,79.9,70.3,73,30.05,10.0,SSE,4.6,-,N/A,,Clear,150,2013-10-27 18:15:00
1:35 PM,80.1,70.3,72,30.04,10.0,South,5.8,-,N/A,,Clear,170,2013-10-27 18:35:00
1:55 PM,79.9,70.5,73,30.03,10.0,SSE,5.8,-,N/A,,Clear,150,2013-10-27 18:55:00
2:15 PM,79.9,70.7,73,30.02,10.0,SSE,5.8,-,N/A,,Clear,150,2013-10-27 19:15:00
2:35 PM,80.1,71.1,74,30.01,10.0,SE,6.9,-,N/A,,Clear,130,2013-10-27 19:35:00
2:55 PM,80.6,69.4,69,30.01,10.0,SE,9.2,-,N/A,,Clear,140,2013-10-27 19:55:00
3:15 PM,80.8,69.6,69,30.01,10.0,SE,8.1,-,N/A,,Clear,140,2013-10-27 20:15:00
3:35 PM,80.8,70.0,70,30.00,10.0,SE,9.2,-,N/A,,Clear,140,2013-10-27 20:35:00
3:55 PM,80.4,70.0,70,30.00,10.0,SE,8.1,-,N/A,,Clear,140,2013-10-27 20:55:00
4:15 PM,80.2,70.2,71,29.99,10.0,ESE,8.1,-,N/A,,Clear,120,2013-10-27 21:15:00
4:35 PM,79.9,70.5,73,29.99,10.0,ESE,8.1,-,N/A,,Clear,120,2013-10-27 21:35:00
4:55 PM,80.1,70.7,73,29.99,10.0,SE,6.9,-,N/A,,Clear,130,2013-10-27 21:55:00
5:15 PM,79.3,70.5,74,29.99,10.0,ESE,8.1,-,N/A,,Clear,120,2013-10-27 22:15:00
5:35 PM,79.0,70.5,75,29.98,10.0,SE,6.9,-,N/A,,Clear,140,2013-10-27 22:35:00
5:55 PM,78.4,70.3,76,29.98,10.0,SE,8.1,-,N/A,,Clear,140,2013-10-27 22:55:00
6:15 PM,77.9,70.7,78,29.98,10.0,SE,9.2,-,N/A,,Clear,140,2013-10-27 23:15:00
6:35 PM,77.2,70.7,80,29.98,10.0,SSE,9.2,-,N/A,,Clear,150,2013-10-27 23:35:00
6:55 PM,76.3,71.1,84,29.98,10.0,SSE,8.1,-,N/A,,Clear,160,2013-10-27 23:55:00
7:15 PM,76.1,71.1,84,29.99,10.0,SSE,9.2,-,N/A,,Clear,160,2013-10-28 00:15:00
7:35 PM,75.9,70.9,84,29.99,10.0,SSE,6.9,-,N/A,,Clear,150,2013-10-28 00:35:00
7:55 PM,75.7,70.9,85,29.99,10.0,SE,6.9,-,N/A,,Clear,140,2013-10-28 00:55:00
8:15 PM,76.1,71.2,85,30.00,10.0,SE,5.8,-,N/A,,Clear,130,2013-10-28 01:15:00
8:35 PM,76.1,70.9,84,30.01,10.0,SE,8.1,-,N/A,,Clear,140,2013-10-28 01:35:00
8:55 PM,76.1,71.1,84,30.01,10.0,SE,5.8,-,N/A,,Clear,130,2013-10-28 01:55:00
9:15 PM,76.1,70.9,84,30.01,10.0,SE,5.8,-,N/A,,Clear,130,2013-10-28 02:15:00
9:35 PM,75.7,70.7,84,30.01,10.0,SE,6.9,-,N/A,,Clear,140,2013-10-28 02:35:00
9:55 PM,75.7,70.5,84,30.02,10.0,SE,6.9,-,N/A,,Clear,140,2013-10-28 02:55:00
10:15 PM,75.4,70.7,85,30.02,10.0,SE,6.9,-,N/A,,Clear,140,2013-10-28 03:15:00
10:35 PM,75.7,70.7,84,30.02,10.0,SE,5.8,-,N/A,,Clear,130,2013-10-28 03:35:00
10:55 PM,75.6,70.7,85,30.02,10.0,SE,8.1,-,N/A,,Clear,140,2013-10-28 03:55:00
11:15 PM,75.6,70.9,85,30.02,10.0,SE,6.9,-,N/A,,Clear,140,2013-10-28 04:15:00
11:35 PM,75.4,70.9,86,30.01,10.0,SE,9.2,-,N/A,,Clear,140,2013-10-28 04:35:00
11:55 PM,75.2,70.9,86,30.01,10.0,SSE,8.1,-,N/A,,Clear,150,2013-10-28 04:55:00